Aérodrome :
LOGIN :

S'inscrire | Disclaimer

   EN    FR    IT 

 










Légende :    VFR   VFR Marginal   IFR   IFR Intensif   IFR Très Intensif
Visi : 
Plafond : 
>= 8 km
>= 3000ft
5 à 8 km
1000 à 3000 ft
1500m à 5 km
500 à 1000 ft
800 à 1500m
200 à 500 ft
< 800m
< 200 ft
Symboles :   Orages  Brouillard  Fortes neiges  Fortes précipitations  Vent > 20 kt
SIGMETs :   Divers  Orages  Givrage  Turbulence  Onde Orograph.  Cendres Volcan.







- Altitude de l'aérodrome : 794 ft


LKCV - Čáslav Air Base

DERNIER METAR :
  • 231100Z 29017KT CAVOK 17/04 Q1020 NOSIG

METARs EXPIRÉS :
  • 231000Z 29016KT 250V310 9999 BKN045 15/05 Q1020 NOSIG RMK BLU BLU
  • 230900Z 29016KT 9999 BKN043 15/05 Q1020 NOSIG RMK BLU BLU

TAF TAF LKCV
Valide du 23 à 06h jusqu'au 24 à 06h UTC


230500Z 2306/2406 27008KT 9999 SCT030 BKN070
BECMG 2306/2308 30010G20KT
TEMPO 2310/2316 31018G28KT
BECMG 2313/2315 BKN030 BKN060
TEMPO 2315/2400 -RA BKN020 OVC050
BECMG 2322/2400 28008KT
Pas de NOTAMs connus pour ce terrain.



MET'MAP, la Météo Aéronautique d'un coup d'oeil ! - Copyright ORBIFLY Décembre 2007 - Disclaimer

ORBIFLY MET'MAP TEAM :

Programmation & Développement : Alexandra Zaïnal
Conception & Développement : Baudouin d'Aumeries
Co-Programmation & Développement : Marc-Olivier Méhu
Soutien technique & logistique : Manuel Goepfert

Contact : metmap@orbifly.com




SOURCES & CREDITS :

   NOAA